Wetbulb
75.60 76.80 78.05 77.36 76.89 77.00 77.22 78.06 77.34 76.80 76.90 76.66 76.67 76.92 76.82 76.57 76.65 76.57 76.52 76.41 76.47 76.29 76.79 77.09 77.48 77.01 76.84 76.76 77.56 77.98 77.56 78.09 78.07 78.24 78.04 77.93 78.13 77.83 77.31 77.81 77.09 74.51 76.15
76.55 76.93 78.07 77.93 77.46 77.76 77.68 78.33 78.02 77.23 77.29 77.10 76.92 77.10 76.88 76.92 77.01 76.99 76.64 76.36 76.48 75.64 76.09 77.01 76.92 76.65 76.15 76.62 76.84 77.28 77.43 77.44 77.56 77.33 77.79 77.51 77.57 77.33 77.20 77.05 77.02 75.29 76.23
76.12 76.95 77.63 78.62 78.13 77.69 77.86 78.23 78.04 76.99 77.12 77.35 77.27 77.05 76.89 76.90 76.82 76.55 76.75 76.84 76.12 75.47 75.65 75.21 75.01 75.20 75.59 75.57 76.42 74.98 74.73 76.02 77.13 76.95 77.51 76.01 76.79 76.59 76.81 76.36 76.21 75.94 75.71
76.40 76.74 77.41 78.50 78.59 77.93 77.79 77.78 78.12 77.28 76.99 76.93 76.91 76.75 76.58 76.47 76.47 76.31 75.92 76.01 76.03 75.20 73.17 74.44 74.09 74.06 73.56 74.33 74.57 72.53 72.53 73.05 76.09 76.79 76.27 69.44 75.47 76.89 76.50 76.11 75.93 75.96 75.87
76.22 76.60 78.11 78.63 78.67 78.09 77.94 77.70 78.38 77.88 77.21 76.83 77.34 77.13 77.05 77.03 76.48 76.12 75.78 75.44 75.21 75.12 73.25 74.54 74.69 74.63 74.77 73.93 74.55 72.44 70.57 72.50 74.26 74.62 75.41 70.34 75.02 77.03 76.36 76.13 76.21 76.24 76.65
75.95 76.92 77.87 77.48 78.00 77.47 77.73 77.57 77.81 77.79 77.57 77.47 77.19 76.73 76.43 76.20 75.83 75.46 75.24 74.89 74.57 74.26 74.62 74.27 74.38 74.73 74.28 74.09 74.82 73.64 71.95 72.80 73.87 73.81 75.06 72.74 73.03 77.63 76.72 75.53 76.29 77.37 77.18
75.14 77.92 77.53 77.75 78.14 77.25 77.14 77.12 77.09 77.06 76.95 76.76 76.65 76.54 76.20 76.17 75.80 75.45 75.26 74.99 74.79 74.59 74.05 74.09 74.00 74.26 74.28 74.48 74.56 75.08 73.76 74.29 72.92 73.37 73.03 70.29 68.74 76.83 77.03 76.59 76.64 76.94 76.50
75.07 76.61 77.26 77.09 78.15 77.93 77.50 77.23 77.31 77.14 76.78 76.59 76.59 76.47 76.26 76.04 75.84 75.84 75.67 74.94 74.45 74.49 74.18 74.67 74.51 74.23 74.78 74.95 74.54 74.43 75.17 75.03 74.02 73.23 75.07 74.37 73.80 77.27 76.92 76.64 76.27 76.35 76.59
76.03 75.34 76.68 76.74 77.34 77.47 77.34 77.36 77.25 77.03 76.95 76.72 76.57 76.69 76.33 76.17 75.65 75.98 75.89 75.48 74.57 74.08 74.31 73.59 74.90 74.98 74.62 74.65 74.76 74.78 74.67 74.93 73.88 74.31 72.85 74.28 75.62 75.83 74.39 75.17 76.43 76.10 76.50
75.38 75.29 76.76 77.22 77.12 76.96 77.04 77.67 77.31 77.39 77.11 76.74 76.61 76.57 76.36 76.11 76.53 76.36 75.96 75.72 74.70 73.69 73.55 72.87 74.06 74.62 74.82 74.53 74.95 74.81 74.48 74.93 74.24 72.33 74.33 73.32 75.62 75.50 74.46 73.90 74.92 76.42 75.79
74.66 75.44 76.44 76.49 76.87 77.55 77.36 77.69 77.50 77.41 77.09 76.75 76.79 76.68 76.87 75.62 75.96 76.06 75.73 76.10 74.82 73.85 72.86 72.86 73.24 73.89 74.95 75.12 75.15 75.01 74.78 74.83 73.62 74.12 71.77 74.18 74.96 74.77 75.13 74.07 74.71 76.07 76.74
73.86 73.70 75.03 75.59 76.40 76.77 75.80 78.54 77.53 76.79 76.35 76.56 76.30 77.69 76.13 76.17 75.88 75.82 76.94 76.24 75.25 73.79 72.48 73.43 73.70 74.05 75.04 74.76 75.00 75.12 74.16 74.28 74.70 73.33 73.12 73.14 72.58 73.52 74.01 74.71 75.15 75.27 76.41
74.31 75.09 75.23 76.09 75.28 75.76 75.37 77.30 75.69 76.48 76.09 75.75 77.73 76.95 76.81 75.59 75.60 74.49 76.30 74.67 77.48 75.35 74.05 73.30 73.22 73.21 74.29 73.99 73.49 72.85 73.29 74.90 72.86 73.12 74.27 72.84 72.40 73.16 74.46 75.58 75.69 75.76 76.36
73.97 74.65 75.39 75.90 77.11 76.87 76.56 75.04 74.86 75.76 75.87 75.25 76.20 77.09 77.26 74.56 77.47 77.00 75.38 73.81 76.03 75.39 75.75 76.17 75.26 74.16 75.01 74.97 74.68 74.00 74.38 73.49 73.66 74.06 74.56 75.03 73.97 74.37 75.01 75.50 76.03 76.50 76.58
73.83 74.55 74.95 76.08 77.04 76.82 76.37 75.57 76.31 75.65 75.05 75.49 76.48 76.01 76.67 74.42 75.01 75.15 75.94 75.87 76.55 75.62 76.48 77.16 76.77 76.27 76.15 75.68 75.83 74.59 74.14 73.68 73.68 73.71 74.60 75.26 75.72 75.53 76.25 76.43 76.62 77.08 77.05
74.16 74.28 74.91 75.44 76.61 76.55 77.07 77.21 78.30 77.15 76.14 75.70 75.80 75.45 76.36 75.68 76.61 77.22 76.36 74.68 76.88 76.57 75.60 77.62 77.07 75.76 75.94 74.81 74.81 75.14 74.40 74.67 74.91 75.08 75.05 74.94 75.73 76.46 76.86 77.01 76.90 76.76 76.78
74.24 74.53 73.93 75.15 75.25 76.69 76.81 76.68 77.59 76.93 76.15 76.36 75.41 76.35 75.94 77.08 76.50 77.59 76.77 75.99 75.62 76.44 77.77 77.61 76.91 77.47 77.06 75.04 74.22 74.87 74.61 75.16 74.61 75.07 75.44 75.07 75.37 76.54 76.90 77.37 77.96 77.51 77.32
73.86 74.99 75.61 75.44 74.91 75.83 76.36 76.78 78.12 77.90 76.39 76.44 75.56 75.97 76.63 77.29 77.95 77.73 75.34 76.20 77.34 77.12 76.42 75.16 73.80 74.52 74.82 75.57 73.93 74.73 73.85 74.32 74.56 75.23 75.49 75.15 73.92 74.80 76.60 77.57 77.61 77.72 76.67
74.79 74.64 75.08 75.51 75.12 75.06 77.21 77.65 78.69 77.33 77.27 76.63 76.73 75.61 77.59 76.71 77.62 77.12 75.83 76.36 77.66 75.75 76.31 75.17 73.37 74.31 72.38 74.75 75.65 74.89 74.98 73.68 74.27 74.16 74.88 75.42 75.16 74.28 75.30 76.79 77.21 77.60 76.70
74.55 75.21 76.01 75.58 77.11 77.60 80.79 78.49 79.99 79.32 75.87 76.53 76.43 76.37 77.38 76.01 77.10 77.21 76.28 76.96 76.91 76.69 75.39 77.06 76.14 75.85 74.77 73.98 74.31 73.98 73.77 74.58 74.60 73.53 74.15 74.93 74.98 74.96 75.28 76.27 75.90 75.34 77.12
74.38 75.29 76.11 76.51 78.17 78.59 75.96 76.00 75.77 72.40 77.06 76.73 76.19 77.26 77.59 76.83 77.33 77.47 75.55 76.93 76.32 75.38 75.83 76.96 76.70 73.42 74.18 75.82 75.37 74.70 73.79 74.08 74.20 74.01 74.05 74.78 75.08 74.91 75.35 75.95 75.85 74.78 74.73
74.29 75.54 76.46 77.37 77.79 77.63 76.90 76.71 75.89 74.35 75.15 75.63 75.92 76.66 76.74 76.90 77.10 77.01 77.31 76.34 77.31 75.82 76.48 76.70 76.63 74.59 74.65 75.39 73.94 74.25 71.85 71.84 72.21 73.04 73.97 73.74 75.34 75.45 74.95 75.75 76.57 78.15 73.92
73.95 75.06 76.39 78.32 78.72 78.31 78.50 79.33 77.70 77.15 76.39 78.13 75.11 74.88 75.66 76.70 77.03 77.75 77.82 77.56 77.85 77.36 74.24 76.89 76.00 75.89 74.45 74.70 75.40 71.77 68.98 67.67 70.29 72.37 73.70 73.28 75.42 74.29 74.45 73.94 75.06 76.14 77.08
74.09 75.66 76.85 77.92 78.29 77.56 78.89 77.23 76.08 72.95 72.31 73.41 74.49 75.38 75.20 76.71 76.88 77.01 77.79 77.88 78.01 77.00 76.75 75.54 76.07 76.27 76.30 72.76 75.06 74.43 74.21 73.86 73.04 65.28 70.12 72.97 74.96 74.64 75.54 74.85 75.03 75.73 76.64
74.07 75.16 76.49 77.74 78.59 79.35 78.53 78.04 75.51 73.89 73.82 74.62 74.75 77.68 78.29 77.28 77.06 76.95 78.00 77.73 77.69 76.04 77.47 77.40 76.87 76.93 75.84 73.80 72.59 74.31 76.64 73.00 73.60 70.77 70.77 71.29 71.66 74.24 74.83 75.30 75.19 75.19 76.53
74.06 74.56 75.39 77.05 78.23 78.83 78.29 76.85 77.46 75.32 74.22 74.74 75.00 76.22 73.88 75.14 75.68 76.99 77.56 78.30 78.27 78.42 77.08 76.80 77.77 77.34 76.96 76.54 75.47 75.05 72.43 72.21 70.72 71.29 69.80 71.91 71.96 74.06 75.14 75.60 75.30 75.68 76.00
MSLP
1011.54 1012.78 1013.76 1014.05 1014.34 1014.56 1014.81 1015.10 1015.38 1015.57 1015.79 1016.11 1016.43 1016.69 1016.90 1017.10 1017.31 1017.63 1017.80 1017.85 1018.10 1018.21 1018.33 1018.37 1018.37 1018.50 1018.47 1018.44 1018.47 1018.53 1018.48 1018.34 1018.45 1018.72 1019.02 1019.09 1019.11 1019.04 1018.86 1018.83 1018.98 1019.53 1020.15
1010.89 1012.64 1013.74 1014.14 1014.46 1014.68 1014.94 1015.29 1015.60 1015.82 1015.95 1016.19 1016.57 1016.79 1017.00 1017.23 1017.49 1017.70 1017.84 1018.01 1018.30 1018.48 1018.60 1018.67 1018.58 1018.75 1018.85 1018.82 1018.86 1018.82 1018.77 1018.58 1018.77 1018.82 1019.11 1019.09 1019.30 1019.43 1019.21 1018.96 1018.93 1020.03 1020.41
1011.04 1012.60 1013.56 1014.27 1014.65 1014.95 1015.19 1015.46 1015.79 1015.93 1016.09 1016.36 1016.67 1016.91 1017.08 1017.38 1017.63 1017.75 1017.89 1018.09 1018.32 1018.49 1018.68 1018.83 1018.82 1018.89 1018.96 1019.11 1019.16 1019.13 1019.08 1018.88 1019.02 1019.15 1018.54 1017.80 1019.04 1019.68 1019.73 1019.33 1019.55 1020.25 1020.61
1010.87 1012.31 1013.19 1014.39 1014.71 1015.07 1015.36 1015.70 1015.89 1016.03 1016.18 1016.57 1016.91 1017.11 1017.23 1017.40 1017.62 1017.74 1017.97 1018.22 1018.43 1018.57 1018.72 1018.80 1018.88 1018.93 1019.11 1019.36 1019.50 1019.25 1019.41 1019.04 1018.99 1019.38 1018.28 1017.17 1017.64 1019.92 1020.14 1019.83 1019.82 1020.31 1020.75
1010.95 1011.80 1013.56 1014.43 1014.87 1015.27 1015.61 1015.85 1016.01 1016.18 1016.39 1016.71 1017.01 1017.18 1017.34 1017.50 1017.62 1017.79 1018.01 1018.20 1018.38 1018.59 1018.68 1018.77 1018.82 1018.80 1019.11 1019.36 1019.65 1019.79 1019.48 1018.77 1019.25 1019.43 1017.91 1019.45 1016.79 1019.16 1020.39 1020.15 1020.06 1020.44 1020.79
1010.85 1011.79 1014.17 1014.57 1015.00 1015.47 1015.86 1016.10 1016.21 1016.40 1016.58 1016.82 1016.96 1017.20 1017.43 1017.57 1017.71 1017.87 1018.01 1018.21 1018.29 1018.38 1018.48 1018.61 1018.64 1018.69 1018.80 1019.05 1019.49 1019.70 1019.52 1018.96 1018.69 1018.77 1018.17 1017.63 1017.73 1018.97 1020.27 1020.35 1020.09 1020.53 1021.02
1010.81 1012.45 1014.08 1014.80 1015.14 1015.59 1015.95 1016.20 1016.36 1016.53 1016.73 1016.90 1017.05 1017.26 1017.49 1017.64 1017.80 1017.97 1018.05 1018.09 1018.18 1018.30 1018.41 1018.50 1018.68 1018.67 1018.85 1019.02 1019.34 1019.53 1019.48 1019.12 1018.48 1017.64 1018.71 1019.50 1020.91 1020.06 1020.39 1020.50 1020.32 1020.67 1021.16
1010.93 1011.87 1013.90 1015.00 1015.22 1015.62 1015.95 1016.23 1016.43 1016.55 1016.74 1016.90 1017.10 1017.40 1017.50 1017.75 1017.98 1018.04 1018.02 1018.17 1018.28 1018.30 1018.39 1018.44 1018.55 1018.67 1018.82 1019.02 1019.18 1019.32 1019.20 1018.81 1018.39 1018.48 1018.61 1018.82 1020.43 1020.11 1020.80 1020.56 1020.41 1020.82 1021.24
1010.72 1011.97 1013.62 1014.45 1015.14 1015.65 1015.93 1016.20 1016.46 1016.63 1016.83 1016.98 1017.24 1017.40 1017.67 1017.79 1017.96 1018.01 1018.04 1018.21 1018.24 1018.27 1018.37 1018.45 1018.44 1018.59 1018.78 1018.98 1019.08 1019.22 1019.15 1018.72 1018.31 1018.20 1018.23 1019.08 1019.86 1020.43 1020.57 1020.34 1020.39 1020.91 1021.29
1011.06 1012.09 1013.08 1013.95 1014.61 1015.10 1015.53 1016.14 1016.43 1016.64 1016.81 1017.00 1017.28 1017.43 1017.63 1017.63 1017.67 1017.82 1018.00 1018.05 1018.31 1018.36 1018.38 1018.49 1018.41 1018.53 1018.69 1018.87 1018.94 1018.98 1018.93 1018.62 1017.83 1018.46 1017.73 1018.94 1019.26 1019.54 1019.98 1020.21 1020.66 1021.01 1021.37
1011.88 1011.99 1012.38 1013.32 1014.08 1014.26 1014.33 1015.57 1016.42 1016.67 1016.80 1017.01 1017.17 1017.42 1017.36 1016.60 1016.91 1017.29 1017.73 1018.05 1018.32 1018.29 1018.33 1018.38 1018.40 1018.45 1018.53 1018.61 1018.71 1018.66 1018.59 1017.69 1017.61 1017.25 1017.93 1018.58 1018.92 1019.31 1019.73 1020.28 1020.72 1021.03 1021.23
1011.89 1012.12 1012.39 1012.44 1013.46 1014.20 1014.45 1015.12 1015.57 1015.72 1015.88 1016.22 1016.52 1016.93 1016.63 1015.83 1016.83 1016.97 1017.31 1017.80 1018.11 1018.21 1018.29 1018.31 1018.36 1018.26 1018.21 1017.66 1017.86 1018.17 1017.56 1017.22 1017.08 1017.32 1018.19 1018.84 1019.17 1019.43 1019.81 1020.23 1020.59 1020.95 1021.18
1011.39 1011.69 1012.00 1012.65 1013.58 1013.99 1014.62 1014.72 1014.72 1015.75 1015.41 1015.80 1016.40 1016.26 1015.96 1015.75 1016.30 1016.37 1016.52 1017.19 1017.43 1017.91 1017.76 1017.85 1017.80 1017.73 1017.07 1017.63 1017.60 1017.98 1017.77 1016.79 1016.76 1016.81 1018.28 1018.81 1019.34 1019.54 1019.75 1020.13 1020.49 1020.72 1020.96
1011.52 1011.61 1011.85 1012.37 1013.53 1013.41 1013.73 1014.32 1014.87 1015.07 1015.31 1015.37 1015.65 1016.24 1016.15 1016.13 1015.88 1016.51 1016.20 1016.91 1017.26 1017.38 1017.54 1017.58 1017.44 1017.61 1017.12 1017.01 1016.76 1017.42 1016.86 1017.12 1016.36 1016.55 1018.20 1018.79 1019.43 1019.70 1019.86 1020.09 1020.32 1020.49 1020.69
1011.21 1011.67 1012.19 1012.65 1013.48 1013.85 1014.26 1014.10 1013.99 1014.83 1015.24 1015.26 1015.74 1015.80 1015.81 1016.05 1015.72 1016.86 1016.97 1016.68 1016.11 1016.79 1017.18 1016.92 1016.69 1017.03 1017.05 1017.15 1017.11 1016.66 1016.55 1016.59 1016.31 1016.34 1017.54 1018.68 1019.21 1019.64 1019.76 1019.90 1020.14 1020.29 1020.48
1010.88 1011.44 1012.01 1012.76 1013.59 1014.18 1014.48 1014.39 1014.50 1014.62 1014.81 1015.15 1015.58 1015.37 1016.15 1015.84 1015.42 1016.41 1016.12 1016.15 1016.53 1016.64 1016.81 1016.91 1016.98 1016.80 1016.59 1017.08 1017.10 1017.00 1016.66 1016.61 1016.87 1016.78 1016.91 1018.37 1019.00 1019.38 1019.54 1019.64 1019.80 1020.06 1020.24
1010.53 1011.13 1012.11 1012.86 1013.81 1014.34 1014.51 1014.44 1015.06 1014.60 1014.39 1015.45 1015.60 1015.36 1016.11 1016.24 1016.00 1015.98 1016.30 1015.59 1016.17 1016.21 1016.10 1016.23 1016.92 1017.08 1017.02 1016.77 1016.89 1016.55 1016.56 1016.78 1016.90 1017.32 1016.95 1017.17 1018.42 1019.01 1019.27 1019.46 1019.55 1019.73 1019.91
1010.26 1010.78 1011.64 1011.95 1013.09 1013.96 1014.37 1014.27 1015.41 1015.46 1015.10 1015.14 1015.10 1014.90 1015.93 1016.01 1016.11 1015.87 1016.32 1016.00 1015.51 1015.53 1015.44 1016.30 1017.18 1017.33 1017.12 1016.85 1016.68 1016.23 1016.43 1016.50 1016.95 1017.07 1016.99 1016.71 1017.62 1017.71 1018.76 1019.06 1019.37 1019.55 1019.68
1009.83 1010.65 1011.26 1011.87 1012.50 1013.24 1013.81 1014.11 1014.95 1015.12 1014.83 1014.72 1014.73 1014.76 1015.36 1015.70 1015.88 1016.04 1016.09 1015.79 1015.91 1015.84 1015.51 1015.74 1016.68 1016.38 1016.35 1016.19 1016.43 1016.28 1015.88 1015.84 1015.95 1016.21 1016.50 1016.45 1016.59 1017.42 1017.57 1018.34 1018.77 1019.17 1019.35
1009.09 1010.33 1010.95 1011.65 1012.37 1012.81 1013.61 1014.58 1015.06 1015.45 1015.23 1014.70 1014.91 1014.93 1014.94 1015.26 1015.71 1015.99 1015.47 1015.52 1016.02 1015.51 1015.75 1015.76 1016.22 1016.26 1016.27 1016.30 1016.66 1016.06 1016.14 1015.59 1015.28 1015.39 1015.71 1016.00 1016.25 1016.18 1016.23 1017.23 1018.15 1018.31 1018.66
1008.63 1009.52 1010.61 1011.37 1012.12 1012.84 1013.55 1013.75 1015.00 1015.29 1015.26 1015.08 1014.46 1014.76 1014.91 1015.25 1015.43 1015.94 1015.60 1015.49 1015.82 1015.90 1015.84 1016.17 1016.53 1016.85 1016.08 1015.77 1016.44 1016.52 1016.12 1015.74 1015.06 1014.82 1014.81 1015.22 1015.23 1015.59 1015.83 1016.28 1016.98 1016.74 1017.73
1008.06 1009.04 1010.04 1011.03 1011.94 1012.66 1013.17 1013.28 1014.10 1014.85 1014.99 1014.93 1014.48 1014.77 1014.95 1015.06 1015.26 1015.70 1015.89 1015.37 1015.65 1015.72 1016.04 1016.20 1016.45 1016.01 1015.88 1015.92 1016.40 1016.51 1016.11 1015.27 1014.47 1014.08 1014.18 1014.44 1014.87 1014.94 1015.26 1015.44 1015.84 1016.27 1017.38
1007.68 1008.59 1009.50 1010.51 1011.68 1012.50 1012.77 1013.33 1013.88 1014.45 1014.93 1015.01 1014.84 1014.36 1014.70 1014.95 1014.97 1015.41 1015.59 1015.69 1015.59 1015.92 1016.05 1015.87 1015.90 1015.89 1015.55 1015.74 1015.53 1015.85 1015.86 1015.30 1014.31 1013.75 1014.19 1014.32 1014.22 1014.77 1014.66 1015.14 1015.67 1015.81 1016.18
1006.86 1007.85 1009.05 1010.18 1010.98 1011.93 1012.55 1013.01 1013.62 1013.96 1014.17 1014.09 1014.26 1014.02 1014.09 1014.79 1014.98 1015.04 1015.43 1015.62 1015.63 1015.44 1015.64 1015.35 1015.39 1015.76 1015.69 1015.77 1015.65 1014.88 1014.81 1014.56 1014.98 1014.83 1015.76 1014.47 1014.16 1014.35 1014.82 1015.06 1015.15 1015.92 1016.02
1005.03 1006.55 1008.26 1009.65 1010.60 1011.17 1011.93 1012.71 1013.21 1013.79 1013.73 1013.61 1013.48 1013.61 1014.14 1014.43 1014.71 1014.62 1014.89 1015.26 1015.41 1015.37 1015.25 1015.58 1015.65 1015.71 1015.57 1015.72 1015.25 1015.07 1014.74 1014.27 1014.12 1015.22 1015.68 1015.03 1014.51 1014.07 1014.39 1014.79 1014.48 1014.87 1014.77
1004.60 1005.67 1007.39 1009.05 1010.11 1010.94 1011.57 1012.54 1012.77 1013.24 1013.42 1012.98 1013.33 1013.89 1014.10 1014.19 1014.35 1014.67 1014.63 1014.84 1014.87 1014.99 1015.16 1015.30 1015.48 1015.56 1015.63 1015.70 1015.41 1015.62 1015.38 1015.21 1014.39 1014.18 1014.20 1014.09 1013.95 1013.87 1013.77 1013.99 1014.28 1014.06 1013.99
Wind_Speed
14 16 11 12 12 12 12 13 15 15 14 14 13 13 13 12 12 11 9 9 8 8 8 8 10 10 10 12 12 13 13 12 13 15 14 14 15 14 14 13 16 16 14
19 17 13 12 12 12 12 12 14 14 14 14 13 13 12 11 11 10 9 8 6 5 4 6 6 7 8 10 11 12 9 7 10 12 15 13 13 11 10 10 19 14 13
20 18 16 12 11 11 12 12 14 15 13 12 12 11 10 9 8 8 6 7 7 3 0 2 2 3 5 7 11 12 9 3 5 7 13 13 11 12 14 18 17 14 13
19 17 17 13 12 12 12 12 13 13 13 11 10 10 8 8 6 6 5 4 4 3 2 5 2 2 2 8 11 14 8 11 6 6 10 10 16 14 14 16 15 14 13
18 17 17 15 13 12 11 12 13 12 13 12 10 9 8 7 6 6 4 3 2 2 2 4 3 3 5 6 12 13 6 11 9 8 12 25 5 17 14 14 14 12 12
17 19 17 15 14 12 11 12 12 12 11 10 10 8 7 6 5 4 3 3 3 4 5 4 4 3 3 3 12 11 9 10 13 11 4 8 16 19 14 13 14 11 11
16 20 17 13 13 12 12 11 11 11 10 9 8 8 7 6 5 4 4 4 5 5 4 3 2 2 1 3 7 15 13 14 14 7 5 7 2 10 11 11 12 10 9
13 19 17 14 12 12 12 11 10 10 9 8 6 6 6 5 4 5 5 5 4 3 2 4 3 2 4 5 5 8 11 14 13 5 7 2 20 15 11 11 10 9 8
14 17 14 13 12 12 11 11 10 9 8 6 5 5 4 4 4 5 4 4 4 3 3 3 4 4 4 5 5 5 6 9 8 6 9 10 18 16 10 8 9 9 8
11 14 14 13 12 11 12 11 11 9 8 7 6 5 5 6 8 7 6 4 6 3 4 4 4 4 5 6 5 6 6 8 8 11 8 5 16 16 11 8 7 8 8
9 10 16 15 12 11 12 13 9 9 8 8 8 7 9 10 12 11 9 9 7 5 3 2 2 3 7 9 9 8 9 8 2 7 7 12 13 13 13 10 10 9 10
17 11 11 12 14 8 5 13 10 10 9 8 8 8 9 4 5 9 9 10 9 9 7 6 5 5 8 1 8 10 8 3 10 4 6 12 10 13 14 13 11 11 10
12 13 9 10 8 13 11 8 5 3 4 6 6 4 6 3 6 5 6 6 5 12 6 9 10 9 3 4 8 10 11 8 2 3 11 13 9 12 16 13 12 12 12
15 12 11 11 10 8 6 6 8 6 5 2 6 8 2 4 5 2 5 5 5 2 5 6 4 7 5 6 5 13 12 1 5 5 10 14 11 11 13 13 13 13 13
15 13 11 10 7 5 3 6 4 4 5 4 3 6 1 5 3 5 4 4 4 6 3 3 2 3 3 4 3 5 4 5 3 2 8 14 12 12 13 12 13 13 13
15 14 14 11 10 9 7 5 1 4 4 4 3 6 5 6 2 5 7 3 5 3 4 5 3 3 3 3 5 7 7 4 1 3 8 9 13 12 12 13 13 13 13
14 15 9 9 11 8 10 9 3 5 6 4 6 6 6 6 6 0 3 5 4 7 5 6 3 4 4 4 6 7 7 6 7 6 7 9 11 14 13 11 11 13 13
13 12 13 12 16 12 9 7 5 7 2 5 6 8 8 7 4 5 5 3 5 2 2 6 7 3 6 4 1 5 7 9 9 9 9 6 6 10 13 15 12 11 13
15 11 13 10 12 12 10 8 8 7 5 4 4 5 11 8 6 7 4 2 1 3 1 5 8 7 2 6 0 3 4 9 11 10 11 7 10 9 9 17 17 15 15
16 11 12 9 8 8 7 6 5 4 5 5 4 3 10 7 5 5 4 2 4 2 3 4 5 6 2 5 4 5 2 6 8 9 11 9 10 7 9 14 13 12 18
16 15 13 12 12 7 8 9 5 5 4 6 6 4 3 6 7 4 8 5 4 4 2 2 0 1 5 1 4 2 5 6 11 9 8 8 9 12 9 9 10 7 11
17 17 15 13 11 11 9 7 8 8 6 7 7 6 8 8 7 7 5 5 3 3 3 4 2 5 5 4 3 2 3 7 8 11 10 9 9 7 10 11 10 7 9
14 15 14 14 13 11 10 5 4 6 3 3 5 8 9 9 9 7 5 7 1 6 4 5 5 4 1 4 3 4 1 3 4 3 11 8 9 7 8 9 2 7 6
17 17 14 15 15 14 12 10 9 7 8 10 9 7 9 11 9 7 7 7 6 6 3 3 5 4 3 4 3 4 5 7 0 5 7 7 9 7 8 3 8 5 6
19 17 16 15 14 13 13 11 11 9 7 6 7 8 7 7 9 11 7 8 6 6 3 3 4 2 4 4 3 2 2 7 7 4 3 0 9 7 8 8 8 8 14
16 15 15 16 15 14 13 14 12 11 10 7 7 5 8 5 8 8 7 6 6 4 3 6 5 5 5 5 6 3 2 3 5 5 4 2 2 3 4 7 7 7 6
Wind_Direction
149 132 144 142 141 139 147 144 142 137 132 127 124 119 115 112 110 117 123 118 108 88 87 95 92 88 83 78 82 84 93 103 106 109 112 114 117 130 132 132 127 106 107
136 142 144 144 142 133 133 142 143 143 135 131 133 126 119 112 109 117 122 123 125 102 76 100 108 101 89 92 87 78 81 107 121 125 126 126 129 120 119 119 85 106 110
130 133 147 140 139 131 123 133 143 145 143 141 138 134 135 133 125 121 120 133 132 127 67 73 137 121 124 84 96 71 41 11 145 157 178 146 127 127 108 99 109 119 116
137 147 138 139 139 134 126 126 139 141 149 150 145 146 148 145 143 146 157 140 129 137 259 272 244 140 105 149 94 32 338 321 281 219 231 39 152 133 125 119 123 124 124
138 141 121 134 138 138 136 129 130 143 146 151 145 146 145 143 153 162 176 183 200 194 246 273 271 227 184 198 125 141 287 296 282 253 278 173 189 131 130 130 133 142 160
141 130 131 137 140 141 141 137 139 144 148 150 154 151 146 158 165 178 185 182 189 206 201 240 245 253 253 184 146 175 209 265 259 228 211 339 14 123 134 153 127 123 127
146 120 140 145 147 154 151 150 148 147 149 155 164 155 164 174 175 176 171 188 182 177 183 194 193 227 198 159 137 180 200 197 239 211 168 106 219 152 144 138 132 128 137
154 132 139 151 154 160 160 157 158 154 157 169 170 163 183 178 169 170 172 179 155 149 172 159 150 160 152 127 137 165 196 212 209 232 196 195 167 135 150 140 138 148 150
158 138 149 161 162 167 171 168 167 165 170 179 175 184 187 183 167 185 177 163 134 128 118 110 150 150 158 150 153 160 186 232 282 213 201 146 143 148 150 143 157 164 173
155 140 151 166 171 177 169 178 177 177 176 184 192 196 194 195 182 188 179 165 154 172 149 149 131 162 178 180 188 188 192 234 244 326 210 107 151 152 164 174 180 183 185
143 217 162 159 170 192 175 160 179 185 187 190 199 193 210 221 182 152 172 160 169 205 177 129 114 178 200 203 201 198 210 218 246 221 60 123 143 168 178 189 191 196 195
163 184 186 171 150 214 228 140 194 178 191 200 188 174 231 156 137 148 168 177 185 214 233 225 227 242 230 156 192 200 217 217 166 224 116 144 160 183 189 195 192 205 209
181 175 177 147 143 199 135 186 178 148 216 192 214 229 249 124 159 212 162 169 201 199 227 217 207 231 214 275 229 64 289 211 147 131 119 125 150 180 186 187 198 207 207
184 196 187 162 170 187 165 194 133 183 219 155 175 207 199 237 101 137 298 141 180 189 209 206 207 250 172 226 269 171 209 324 231 121 131 137 163 180 188 196 200 206 208
179 188 186 175 167 194 211 196 186 167 172 244 172 180 240 220 186 100 275 257 275 169 204 215 228 252 340 199 243 243 260 212 272 199 125 149 165 184 194 193 203 206 209
179 182 182 190 156 194 218 226 5 238 136 207 201 164 224 258 136 153 255 8 186 168 236 158 206 215 225 191 193 225 232 195 231 327 145 154 168 187 201 205 203 210 212
185 176 161 170 160 199 208 199 187 253 156 156 218 166 201 209 207 336 254 273 198 196 189 162 75 353 265 259 217 199 208 203 183 218 267 148 166 186 197 201 199 203 208
193 166 171 194 160 178 209 193 187 249 253 182 234 170 192 217 255 249 210 248 38 285 223 140 136 230 256 238 139 229 207 187 222 184 223 181 184 182 194 199 204 210 216
184 184 191 188 186 169 193 202 178 227 244 218 205 239 167 205 197 263 209 152 301 250 269 136 170 186 237 210 239 247 245 199 189 192 211 220 192 145 193 188 196 199 212
182 170 192 175 205 179 142 184 188 174 246 236 271 209 157 199 197 243 262 73 272 186 200 354 346 5 196 195 238 214 241 265 206 202 203 187 228 220 210 173 189 199 204
180 178 181 200 173 178 197 185 185 193 224 248 226 176 208 244 174 219 260 164 225 263 280 286 86 351 282 351 86 249 262 237 236 209 207 199 216 203 220 200 202 202 193
189 184 187 197 177 194 196 200 195 185 205 209 231 197 217 198 218 205 261 270 144 45 193 221 241 282 205 138 118 311 250 229 219 212 202 206 216 214 204 208 206 229 166
188 195 190 193 181 198 226 184 214 157 231 255 262 200 187 219 212 215 204 266 159 274 135 241 213 248 263 324 215 184 253 259 276 235 195 209 195 220 246 127 249 220 223
185 183 196 189 189 198 206 197 178 177 203 201 208 211 186 200 215 218 219 223 231 271 76 243 209 318 234 290 269 220 301 299 64 40 319 298 185 211 233 190 196 207 185
183 176 184 184 198 200 192 196 187 194 230 234 186 193 214 173 208 221 194 209 230 230 178 289 303 278 297 243 214 284 310 280 236 285 111 112 321 179 208 228 254 196 192
178 171 178 176 195 197 180 198 192 194 222 224 217 164 209 189 179 218 218 226 237 261 239 248 231 262 282 316 333 359 287 271 324 340 322 355 39 242 211 199 235 254 248